Regional Weather Roundup
Issued by NWS

Home | Current Version | Previous Version | Graphics & Text | Print | Product List | Glossary On
Versions: 1 2 3 4 5 6 7 8 9 10 11 12 13 14 15 16 17 18 19 20 21 22 23 24 25 26 27 28 29 30 31 32 33 34 35 36 37 38 39 40 41 42 43 44 45 46 47 48 49 50
000
ASUS43 KLSX 251707
RWRMO

WEATHER SUMMARY FOR MISSOURI
NATIONAL WEATHER SERVICE SPRINGFIELD MO
1200 PM CDT WED APR 25 2018

NOTE: "FAIR" INDICATES FEW OR NO CLOUDS BELOW 12,000 FEET WITH NO
       SIGNIFICANT WEATHER AND/OR OBSTRUCTIONS TO VISIBILITY.
       CURRENT SKY AND/OR WEATHER CONDITIONS ARE NOT AVAILABLE FOR
       CHILLICOTHE AND FARMINGTON.

MOZ001>031-035>038-043-044-053-054-251800-
...NORTHERN AND WESTERN MISSOURI...

CITY           SKY/WX    TMP DP  RH WIND       PRES   REMARKS
KANSAS CTY INT LGT RAIN  48  46  93 N12       30.16S FOG
KANSAS C DTWN  LGT RAIN  51  46  83 N9        30.14F
LEE`S SUMMIT   CLOUDY    50  47  89 NE9       30.14F
ST JOSEPH      LGT RAIN  48  46  93 N13       30.19S
CHILLICOTHE      N/A     49  44  83 N8        30.17F
KIRKSVILLE     CLOUDY    53  43  68 N7        30.14F

$$
MOZ066>068-077>081-088>096-101>105-251800-
...SOUTHWEST MISSOURI...

CITY           SKY/WX    TMP DP  RH WIND       PRES   REMARKS
SPRINGFIELD    LGT RAIN  54  51  90 N6        30.11F
JOPLIN         LGT RAIN  55  52  89 S5        30.13S FOG
BRANSON        LGT RAIN  52  52 100 CALM      30.15F FOG

$$
MOZ032>034-039>042-045>050-055>058-069>072-251800-
...CENTRAL MISSOURI...

CITY           SKY/WX    TMP DP  RH WIND       PRES   REMARKS
COLUMBIA       CLOUDY    59  41  51 NW7       30.10S
JEFFERSON CITY CLOUDY    60  41  49 W9        30.10F
ROLLA          CLOUDY    58  44  60 NW9       30.09S
SEDALIA        CLOUDY    55  48  77 NW9       30.13F
WHITEMAN AFB   LGT RAIN  51  47  87 N8        30.10S
WARRENSBURG    LGT RAIN  50  45  81 N8        30.15R
OSAGE BEACH    CLOUDY    58  43  57 N5        30.12S

$$
MOZ051-052-059>065-251800-
...EAST CENTRAL MISSOURI...

CITY           SKY/WX    TMP DP  RH WIND       PRES   REMARKS
ST LOUIS INTL  CLOUDY    64  51  62 N5        30.06R
SPIRIT OF STL  CLOUDY    64  48  56 N12G17    30.05S
ST CHARLES     PTSUNNY   64  52  64 NE10      30.05S

$$
MOZ072>076-082>087-097>100-106>115-251800-
...SOUTH CENTRAL AND SOUTHEAST MISSOURI...

CITY           SKY/WX    TMP DP  RH WIND       PRES   REMARKS
CAPE GIRARDEAU FAIR      68  51  54 W5        30.01F
FARMINGTON     CLOUDY    64  46  52 N3        30.04F
POPLAR BLUFF   FAIR      69  50  50 SE5       30.01F
WEST PLAINS    CLOUDY    59  45  59 W13       30.10R

$$



USA.gov is the U.S. government's official web portal to all federal, state and local government web resources and services.